SVR2770 UTDK-UUDD

Flight info

Callsign SVR2770
Flight time N/A
Altitude 34000
Route K0839F340 YOVEK1A JD Z407 DAKLI L162 ODIVA M161 GERLI/K0824F360 M161 LEDGI M166 ARISA L736 OLOPI OLOPI3N
Aircraft A321/M-SDE3FGHIRWY/LB1

Departure

Time 2026-04-17 09:18
Airport Kulob International Airport (UTDK)

Arrival

Time N/A
Airport Domodedovo International Airport (UUDD)
Time Latitude Longitude Altitude Speed Heading
2026-04-17 09:12 37.98729 69.80775 2230 ft 0 kts 107°
2026-04-17 09:14 37.98741 69.80809 2237 ft 9 kts 43°
2026-04-17 09:14 37.98771 69.80794 2231 ft 5 kts 306°
2026-04-17 09:15 37.98804 69.80743 2232 ft 11 kts 329°
2026-04-17 09:15 37.98891 69.80690 2231 ft 17 kts 329°
2026-04-17 09:15 37.98998 69.80624 2231 ft 16 kts 352°
2026-04-17 09:15 37.99114 69.80661 2226 ft 22 kts 15°
2026-04-17 09:16 37.99290 69.80734 2230 ft 31 kts 20°
2026-04-17 09:16 37.99532 69.80817 2230 ft 40 kts 14°
2026-04-17 09:16 37.99808 69.80912 2228 ft 41 kts 17°
2026-04-17 09:16 38.00023 69.80993 2226 ft 25 kts 21°
2026-04-17 09:17 38.00086 69.80989 2222 ft 5 kts 234°
2026-04-17 09:17 38.00036 69.80989 2227 ft 11 kts 179°
2026-04-17 09:17 37.99960 69.80968 2223 ft 11 kts 195°
2026-04-17 09:17 37.99775 69.80901 2225 ft 60 kts 195°
2026-04-17 09:18 37.99158 69.80682 2224 ft 122 kts 195°
2026-04-17 09:18 37.98176 69.80318 2245 ft 169 kts 196°
2026-04-17 09:18 37.97017 69.79880 2766 ft 175 kts 197°
2026-04-17 09:18 37.95839 69.79423 3480 ft 176 kts 197°
2026-04-17 09:19 37.94668 69.78981 4147 ft 174 kts 196°
2026-04-17 09:19 37.93481 69.78555 4348 ft 188 kts 196°
2026-04-17 09:19 37.92165 69.78091 4512 ft 205 kts 196°
2026-04-17 09:19 37.90731 69.77585 4634 ft 223 kts 196°
2026-04-17 09:20 37.89171 69.77033 4742 ft 245 kts 197°
2026-04-17 09:20 37.87462 69.76420 5003 ft 263 kts 197°
2026-04-17 09:20 37.85676 69.75780 5578 ft 269 kts 197°
2026-04-17 09:20 37.83866 69.75136 6217 ft 272 kts 197°
2026-04-17 09:21 37.82035 69.74482 6874 ft 275 kts 197°
2026-04-17 09:21 37.80183 69.73818 7480 ft 278 kts 197°
2026-04-17 09:21 37.78460 69.72753 8029 ft 279 kts 224°
2026-04-17 09:21 37.77439 69.70696 8556 ft 281 kts 256°
2026-04-17 09:22 37.77480 69.68248 9084 ft 285 kts 288°
2026-04-17 09:22 37.78568 69.66170 9557 ft 291 kts 319°
2026-04-17 09:22 37.80368 69.64966 10109 ft 297 kts 339°
2026-04-17 09:22 37.82330 69.64071 10447 ft 308 kts 339°
2026-04-17 09:23 37.84400 69.63146 10596 ft 323 kts 339°
2026-04-17 09:23 37.86573 69.62182 10731 ft 340 kts 339°
2026-04-17 09:23 37.88854 69.61169 10938 ft 353 kts 339°
2026-04-17 09:23 37.91187 69.60127 11399 ft 358 kts 339°
2026-04-17 09:24 37.93543 69.59070 11931 ft 360 kts 339°
2026-04-17 09:24 37.95909 69.58005 12453 ft 362 kts 339°
2026-04-17 09:24 37.98298 69.56929 12963 ft 365 kts 338°
2026-04-17 09:24 38.00698 69.55844 13447 ft 368 kts 338°
2026-04-17 09:25 38.03121 69.54746 13949 ft 371 kts 338°
2026-04-17 09:25 38.05558 69.53641 14445 ft 373 kts 337°
2026-04-17 09:25 38.08011 69.52529 14917 ft 376 kts 337°
2026-04-17 09:25 38.10479 69.51412 15361 ft 378 kts 336°
2026-04-17 09:26 38.12965 69.50286 15801 ft 381 kts 336°
2026-04-17 09:26 38.15474 69.49149 16216 ft 384 kts 335°
2026-04-17 09:26 38.17996 69.48005 16654 ft 387 kts 335°
2026-04-17 09:26 38.20539 69.46852 17052 ft 389 kts 335°
2026-04-17 09:27 38.23094 69.45688 17445 ft 391 kts 334°
2026-04-17 09:27 38.25663 69.44516 17798 ft 394 kts 334°
2026-04-17 09:27 38.28254 69.43335 18187 ft 396 kts 334°
2026-04-17 09:27 38.30850 69.42157 18578 ft 397 kts 334°
2026-04-17 09:28 38.33456 69.40969 18934 ft 399 kts 334°
2026-04-17 09:28 38.36077 69.39771 19278 ft 401 kts 334°
2026-04-17 09:28 38.38713 69.38569 19587 ft 403 kts 334°
2026-04-17 09:28 38.41362 69.37360 19937 ft 405 kts 334°
2026-04-17 09:29 38.44024 69.36142 20257 ft 407 kts 334°
2026-04-17 09:29 38.46693 69.34918 20614 ft 409 kts 334°
2026-04-17 09:29 38.49379 69.33689 20932 ft 411 kts 334°
2026-04-17 09:29 38.52012 69.32323 21232 ft 407 kts 326°
2026-04-17 09:30 38.54373 69.30480 21516 ft 400 kts 316°
2026-04-17 09:30 38.56451 69.28152 21793 ft 395 kts 307°
2026-04-17 09:30 38.58221 69.25492 22116 ft 393 kts 303°
2026-04-17 09:30 38.59958 69.22790 22444 ft 395 kts 303°
2026-04-17 09:31 38.61709 69.20073 22777 ft 396 kts 303°
2026-04-17 09:31 38.63462 69.17349 23075 ft 398 kts 303°
2026-04-17 09:31 38.65226 69.14611 23392 ft 399 kts 303°
2026-04-17 09:31 38.66997 69.11864 23697 ft 401 kts 304°
2026-04-17 09:32 38.68775 69.09111 23980 ft 402 kts 303°
2026-04-17 09:32 38.70558 69.06348 24285 ft 403 kts 303°
2026-04-17 09:32 38.72343 69.03571 24580 ft 404 kts 303°
2026-04-17 09:32 38.74132 69.00774 24861 ft 407 kts 303°
2026-04-17 09:33 38.75925 68.97967 25128 ft 409 kts 302°
2026-04-17 09:33 38.77729 68.95141 25428 ft 410 kts 303°
2026-04-17 09:33 38.79534 68.92312 25714 ft 410 kts 303°
2026-04-17 09:33 38.81341 68.89475 25978 ft 412 kts 302°
2026-04-17 09:34 38.83155 68.86628 26243 ft 413 kts 302°
2026-04-17 09:34 38.84777 68.83639 26504 ft 406 kts 294°
2026-04-17 09:34 38.86052 68.80427 26683 ft 404 kts 290°
2026-04-17 09:34 38.87279 68.77178 26894 ft 405 kts 290°
2026-04-17 09:35 38.88505 68.73922 27147 ft 406 kts 289°
2026-04-17 09:35 38.89737 68.70649 27407 ft 407 kts 290°
2026-04-17 09:35 38.90972 68.67375 27624 ft 409 kts 290°
2026-04-17 09:35 38.92212 68.64089 27856 ft 410 kts 290°
2026-04-17 09:36 38.93454 68.60790 28080 ft 410 kts 290°
2026-04-17 09:36 38.94696 68.57486 28288 ft 411 kts 289°
2026-04-17 09:36 38.95940 68.54175 28460 ft 412 kts 290°
2026-04-17 09:36 38.97184 68.50855 28654 ft 412 kts 289°
2026-04-17 09:37 38.98429 68.47531 28869 ft 414 kts 289°
2026-04-17 09:37 38.99675 68.44201 29027 ft 414 kts 289°
2026-04-17 09:37 39.00923 68.40861 29246 ft 415 kts 289°
2026-04-17 09:37 39.02173 68.37512 29414 ft 416 kts 289°
2026-04-17 09:38 39.03423 68.34157 29614 ft 416 kts 289°
2026-04-17 09:38 39.04657 68.30850 29770 ft 416 kts 289°
2026-04-17 09:38 39.05909 68.27496 29932 ft 415 kts 289°
2026-04-17 09:38 39.07156 68.24151 30069 ft 415 kts 289°
2026-04-17 09:39 39.08400 68.20804 30257 ft 415 kts 289°
2026-04-17 09:39 39.09642 68.17455 30469 ft 414 kts 289°
2026-04-17 09:39 39.10879 68.14118 30756 ft 413 kts 289°
2026-04-17 09:39 39.12114 68.10787 31053 ft 411 kts 289°
2026-04-17 09:40 39.13344 68.07473 31350 ft 409 kts 288°
2026-04-17 09:40 39.14567 68.04167 31615 ft 408 kts 288°
2026-04-17 09:40 39.15780 68.00874 31863 ft 406 kts 288°
2026-04-17 09:40 39.16985 67.97591 32044 ft 405 kts 288°
2026-04-17 09:41 39.18188 67.94313 32236 ft 404 kts 288°
2026-04-17 09:41 39.19389 67.91036 32404 ft 404 kts 288°
2026-04-17 09:41 39.20588 67.87766 32650 ft 403 kts 288°
2026-04-17 09:41 39.21783 67.84509 32863 ft 401 kts 288°
2026-04-17 09:42 39.22976 67.81260 33064 ft 401 kts 288°
2026-04-17 09:42 39.24165 67.78019 33273 ft 399 kts 288°
2026-04-17 09:42 39.25349 67.74791 33416 ft 398 kts 288°
2026-04-17 09:42 39.26530 67.71559 33600 ft 397 kts 287°
2026-04-17 09:43 39.27703 67.68337 33809 ft 396 kts 287°
2026-04-17 09:43 39.28870 67.65127 33998 ft 395 kts 287°
2026-04-17 09:43 39.30034 67.61923 34177 ft 394 kts 287°
2026-04-17 09:43 39.31195 67.58726 34231 ft 391 kts 287°
2026-04-17 09:44 39.33499 67.52392 34237 ft 389 kts 287°
2026-04-17 09:44 39.35785 67.46067 34236 ft 388 kts 286°
2026-04-17 09:45 39.37911 67.39682 34247 ft 386 kts 284°
2026-04-17 09:45 39.39610 67.34345 34245 ft 386 kts 284°
2026-04-17 09:46 39.41687 67.27945 34243 ft 390 kts 289°
2026-04-17 09:46 39.45764 67.21447 34237 ft 418 kts 312°
2026-04-17 09:47 39.49683 67.17641 34236 ft 421 kts 313°
2026-04-17 09:47 39.54362 67.13057 34232 ft 422 kts 312°
2026-04-17 09:48 39.59037 67.08448 34230 ft 423 kts 312°
2026-04-17 09:48 39.63719 67.03818 34237 ft 423 kts 313°
2026-04-17 09:49 39.68412 66.99191 34237 ft 424 kts 312°
2026-04-17 09:49 39.73050 66.94500 34241 ft 421 kts 310°
2026-04-17 09:50 39.77468 66.89608 34239 ft 419 kts 308°
2026-04-17 09:50 39.81858 66.84622 34244 ft 420 kts 309°
2026-04-17 09:51 39.86325 66.79637 34235 ft 420 kts 309°
2026-04-17 09:51 39.90764 66.74762 34195 ft 420 kts 309°
2026-04-17 09:52 39.95207 66.69844 34205 ft 416 kts 309°
2026-04-17 09:52 39.99616 66.64914 34219 ft 419 kts 309°
2026-04-17 09:53 40.04052 66.59972 34214 ft 420 kts 309°
2026-04-17 09:53 40.08513 66.55008 34228 ft 422 kts 309°
2026-04-17 09:54 40.12970 66.50022 34236 ft 422 kts 309°
2026-04-17 09:54 40.17442 66.45025 34237 ft 423 kts 309°
2026-04-17 09:55 40.21914 66.40020 34246 ft 423 kts 309°
2026-04-17 09:55 40.26424 66.35067 34240 ft 429 kts 314°
2026-04-17 09:56 40.31380 66.30633 34239 ft 431 kts 315°
2026-04-17 09:56 40.36342 66.26210 34249 ft 431 kts 315°
2026-04-17 09:57 40.41290 66.21778 34147 ft 431 kts 315°
2026-04-17 09:57 40.43766 66.19566 34260 ft 430 kts 315°
2026-04-17 09:57 40.46247 66.17354 34258 ft 431 kts 316°
2026-04-17 09:58 40.51184 66.12877 34280 ft 431 kts 315°
2026-04-17 09:58 40.56070 66.08396 34276 ft 429 kts 314°
2026-04-17 09:59 40.60993 66.03883 34262 ft 429 kts 315°
2026-04-17 09:59 40.65895 65.99396 34263 ft 430 kts 315°
2026-04-17 10:00 40.70813 65.94904 34256 ft 430 kts 315°
2026-04-17 10:00 40.75694 65.90442 34251 ft 429 kts 314°
2026-04-17 10:01 40.80600 65.85920 34258 ft 432 kts 315°
2026-04-17 10:01 40.85538 65.81373 34271 ft 432 kts 315°
2026-04-17 10:02 40.90459 65.76838 34285 ft 431 kts 315°
2026-04-17 10:02 40.95374 65.72289 34286 ft 431 kts 315°
2026-04-17 10:03 41.00286 65.67748 34291 ft 430 kts 315°
2026-04-17 10:03 41.05186 65.63212 34288 ft 429 kts 315°
2026-04-17 10:04 41.10079 65.58671 34287 ft 429 kts 315°
2026-04-17 10:04 41.14947 65.54106 34291 ft 428 kts 315°
2026-04-17 10:05 41.19799 65.49516 34290 ft 428 kts 315°
2026-04-17 10:05 41.24651 65.44930 34280 ft 428 kts 315°
2026-04-17 10:06 41.29507 65.40349 34285 ft 428 kts 315°
2026-04-17 10:06 41.34362 65.35765 34282 ft 428 kts 315°
2026-04-17 10:07 41.39211 65.31175 34282 ft 428 kts 315°
2026-04-17 10:07 41.44055 65.26574 34286 ft 427 kts 315°
2026-04-17 10:08 41.48893 65.21970 34288 ft 427 kts 315°
2026-04-17 10:08 41.53731 65.17363 34283 ft 427 kts 315°
2026-04-17 10:09 41.58568 65.12749 34283 ft 427 kts 315°
2026-04-17 10:09 41.63400 65.08130 34283 ft 427 kts 315°
2026-04-17 10:10 41.68234 65.03494 34278 ft 428 kts 315°
2026-04-17 10:11 41.75484 64.96518 34280 ft 428 kts 315°
2026-04-17 10:11 41.80296 64.91892 34282 ft 428 kts 315°
2026-04-17 10:12 41.85138 64.87226 34287 ft 429 kts 315°
2026-04-17 10:12 41.89976 64.82548 34286 ft 429 kts 315°
2026-04-17 10:13 41.94808 64.77861 34289 ft 428 kts 315°
2026-04-17 10:13 41.99642 64.73172 34293 ft 429 kts 316°
2026-04-17 10:14 42.04482 64.68475 34296 ft 429 kts 316°
2026-04-17 10:14 42.09312 64.63771 34297 ft 429 kts 316°
2026-04-17 10:15 42.14145 64.59052 34300 ft 429 kts 316°
2026-04-17 10:15 42.18972 64.54332 34294 ft 429 kts 316°
2026-04-17 10:16 42.23806 64.49602 34297 ft 429 kts 316°
2026-04-17 10:16 42.28635 64.44863 34294 ft 429 kts 316°
2026-04-17 10:17 42.33465 64.40115 34293 ft 429 kts 316°
2026-04-17 10:17 42.38287 64.35361 34302 ft 429 kts 316°
2026-04-17 10:18 42.43113 64.30598 34309 ft 430 kts 316°
2026-04-17 10:18 42.47935 64.25823 34307 ft 429 kts 316°
2026-04-17 10:19 42.52756 64.21043 34312 ft 429 kts 316°
2026-04-17 10:19 42.57573 64.16258 34310 ft 429 kts 316°
2026-04-17 10:20 42.62313 64.11359 34307 ft 426 kts 313°
2026-04-17 10:20 42.66855 64.06215 34302 ft 424 kts 312°
2026-04-17 10:21 42.71360 64.01041 34308 ft 424 kts 313°
2026-04-17 10:21 42.75902 63.95897 34306 ft 425 kts 314°
2026-04-17 10:22 42.80463 63.90768 34296 ft 426 kts 314°
2026-04-17 10:22 42.85031 63.85623 34293 ft 426 kts 314°
2026-04-17 10:23 42.89597 63.80466 34297 ft 426 kts 314°
2026-04-17 10:23 42.94132 63.75325 34302 ft 427 kts 314°
2026-04-17 10:24 42.98690 63.70136 34314 ft 427 kts 314°
2026-04-17 10:24 43.03249 63.64947 34311 ft 427 kts 314°
2026-04-17 10:25 43.07805 63.59748 34321 ft 426 kts 314°
2026-04-17 10:25 43.12356 63.54537 34319 ft 427 kts 314°
2026-04-17 10:26 43.16908 63.49325 34327 ft 426 kts 314°
2026-04-17 10:26 43.21449 63.44098 34322 ft 426 kts 314°
2026-04-17 10:27 43.25993 63.38873 34318 ft 426 kts 315°
2026-04-17 10:27 43.30536 63.33644 34315 ft 426 kts 314°
2026-04-17 10:28 43.35066 63.28403 34315 ft 426 kts 314°
2026-04-17 10:28 43.39594 63.23147 34312 ft 426 kts 315°
2026-04-17 10:29 43.44119 63.17881 34317 ft 426 kts 315°
2026-04-17 10:29 43.48646 63.12628 34317 ft 426 kts 315°
2026-04-17 10:30 43.53176 63.07357 34315 ft 426 kts 315°
2026-04-17 10:30 43.57687 63.02075 34299 ft 426 kts 315°
2026-04-17 10:31 43.62204 62.96779 34312 ft 426 kts 315°
2026-04-17 10:31 43.66694 62.91511 34314 ft 426 kts 315°
2026-04-17 10:32 43.71213 62.86208 34312 ft 426 kts 315°
2026-04-17 10:32 43.75732 62.80893 34300 ft 427 kts 315°
2026-04-17 10:33 43.80259 62.75576 34314 ft 427 kts 315°
2026-04-17 10:33 43.84772 62.70239 34311 ft 426 kts 315°
2026-04-17 10:34 43.89281 62.64897 34310 ft 427 kts 315°
2026-04-17 10:34 43.93042 62.60460 34294 ft 427 kts 315°
2026-04-17 10:35 43.97563 62.55101 34297 ft 427 kts 316°
2026-04-17 10:35 44.02075 62.49733 34303 ft 427 kts 316°
2026-04-17 10:36 44.06583 62.44360 34317 ft 426 kts 316°
2026-04-17 10:36 44.11081 62.38982 34318 ft 427 kts 316°
2026-04-17 10:37 44.15578 62.33593 34318 ft 427 kts 316°
2026-04-17 10:37 44.20069 62.28200 34323 ft 427 kts 316°
2026-04-17 10:38 44.24565 62.22781 34316 ft 427 kts 316°
2026-04-17 10:38 44.29058 62.17361 34317 ft 427 kts 316°
2026-04-17 10:39 44.33550 62.11924 34319 ft 427 kts 316°
2026-04-17 10:39 44.38039 62.06492 34312 ft 427 kts 316°
2026-04-17 10:40 44.42517 62.01041 34319 ft 427 kts 316°
2026-04-17 10:40 44.46994 61.95588 34319 ft 427 kts 316°
2026-04-17 10:41 44.51473 61.90126 34320 ft 427 kts 316°
2026-04-17 10:41 44.55947 61.84654 34312 ft 427 kts 316°
2026-04-17 10:42 44.60416 61.79175 34311 ft 426 kts 316°
2026-04-17 10:42 44.64877 61.73689 34312 ft 426 kts 316°
2026-04-17 10:43 44.69339 61.68202 34289 ft 426 kts 317°
2026-04-17 10:43 44.73804 61.62719 34290 ft 426 kts 317°
2026-04-17 10:44 44.78255 61.57209 34292 ft 426 kts 316°
2026-04-17 10:44 44.82709 61.51694 34310 ft 427 kts 317°
2026-04-17 10:45 44.87164 61.46156 34318 ft 427 kts 317°
2026-04-17 10:45 44.91617 61.40614 34316 ft 427 kts 317°
2026-04-17 10:46 44.96073 61.35070 34320 ft 427 kts 317°
2026-04-17 10:46 45.00522 61.29523 34318 ft 427 kts 317°
2026-04-17 10:47 45.04971 61.23963 34319 ft 426 kts 317°
2026-04-17 10:47 45.09407 61.18399 34322 ft 426 kts 317°
2026-04-17 10:48 45.13813 61.12860 34315 ft 426 kts 317°
2026-04-17 10:48 45.18246 61.07277 34315 ft 427 kts 317°
2026-04-17 10:49 45.22678 61.01688 34320 ft 427 kts 317°
2026-04-17 10:49 45.27117 60.96077 34324 ft 427 kts 317°
2026-04-17 10:50 45.31551 60.90465 34324 ft 427 kts 317°
2026-04-17 10:50 45.35982 60.84843 34322 ft 427 kts 317°
2026-04-17 10:51 45.40407 60.79219 34325 ft 426 kts 317°
2026-04-17 10:51 45.44823 60.73585 34321 ft 426 kts 317°
2026-04-17 10:52 45.49228 60.67944 34319 ft 426 kts 317°
2026-04-17 10:52 45.53634 60.62297 34320 ft 426 kts 317°
2026-04-17 10:53 45.58034 60.56650 34314 ft 426 kts 317°
2026-04-17 10:53 45.62436 60.50988 34320 ft 426 kts 317°
2026-04-17 10:54 45.66832 60.45312 34320 ft 426 kts 317°
2026-04-17 10:54 45.71219 60.39623 34320 ft 426 kts 317°
2026-04-17 10:55 45.75612 60.33936 34321 ft 425 kts 317°
2026-04-17 10:55 45.79998 60.28253 34315 ft 425 kts 317°
2026-04-17 10:56 45.84378 60.22559 34316 ft 425 kts 317°
2026-04-17 10:56 45.88749 60.16841 34318 ft 425 kts 317°
2026-04-17 10:57 45.93115 60.11118 34319 ft 425 kts 317°
2026-04-17 10:57 45.97491 60.05396 34315 ft 425 kts 317°
2026-04-17 10:58 46.01859 59.99671 34322 ft 425 kts 317°
2026-04-17 10:58 46.06223 59.93927 34328 ft 425 kts 317°
2026-04-17 10:59 46.10573 59.88174 34322 ft 424 kts 317°
2026-04-17 10:59 46.14926 59.82423 34322 ft 424 kts 317°
2026-04-17 11:00 46.19274 59.76667 34316 ft 424 kts 317°
2026-04-17 11:00 46.23611 59.70883 34310 ft 425 kts 316°
2026-04-17 11:01 46.27838 59.64924 34302 ft 425 kts 315°
2026-04-17 11:01 46.32006 59.58861 34299 ft 425 kts 315°
2026-04-17 11:02 46.36176 59.52799 34294 ft 425 kts 315°
2026-04-17 11:02 46.40370 59.46760 34296 ft 426 kts 315°
2026-04-17 11:03 46.44569 59.40704 34298 ft 426 kts 315°
2026-04-17 11:03 46.48774 59.34635 34302 ft 426 kts 315°
2026-04-17 11:04 46.52972 59.28555 34309 ft 427 kts 315°
2026-04-17 11:04 46.57174 59.22454 34297 ft 427 kts 315°
2026-04-17 11:05 46.61379 59.16334 34296 ft 428 kts 315°
2026-04-17 11:05 46.65551 59.10229 34297 ft 428 kts 315°
2026-04-17 11:06 46.69778 59.04026 34310 ft 429 kts 315°
2026-04-17 11:06 46.73990 58.97867 34314 ft 429 kts 315°
2026-04-17 11:07 46.78171 58.91733 34314 ft 429 kts 315°
2026-04-17 11:07 46.82375 58.85536 34320 ft 430 kts 315°
2026-04-17 11:08 46.86579 58.79326 34313 ft 430 kts 315°
2026-04-17 11:08 46.90785 58.73098 34315 ft 430 kts 315°
2026-04-17 11:09 46.94987 58.66859 34321 ft 431 kts 315°
2026-04-17 11:09 46.99196 58.60608 34312 ft 431 kts 315°
2026-04-17 11:10 47.05495 58.51201 34329 ft 431 kts 315°
2026-04-17 11:10 47.09694 58.44907 34336 ft 432 kts 315°
2026-04-17 11:11 47.13905 58.38610 34341 ft 432 kts 315°
2026-04-17 11:11 47.18112 58.32288 34337 ft 433 kts 315°
2026-04-17 11:12 47.22313 58.25942 34341 ft 433 kts 315°
2026-04-17 11:12 47.26517 58.19582 34342 ft 434 kts 315°
2026-04-17 11:13 47.30727 58.13207 34344 ft 434 kts 315°
2026-04-17 11:13 47.34940 58.06811 34352 ft 435 kts 315°
2026-04-17 11:14 47.39163 58.00391 34357 ft 436 kts 315°
2026-04-17 11:14 47.43369 57.93949 34357 ft 436 kts 315°
2026-04-17 11:15 47.47581 57.87495 34369 ft 436 kts 315°
2026-04-17 11:15 47.51766 57.81076 34369 ft 436 kts 315°
2026-04-17 11:16 47.55980 57.74601 34364 ft 437 kts 314°
2026-04-17 11:16 47.60187 57.68115 34359 ft 437 kts 314°
2026-04-17 11:17 47.64390 57.61623 34363 ft 436 kts 314°
2026-04-17 11:17 47.68587 57.55118 34361 ft 436 kts 314°
2026-04-17 11:18 47.72782 57.48603 34359 ft 436 kts 314°
2026-04-17 11:18 47.76974 57.42081 34356 ft 436 kts 314°
2026-04-17 11:19 47.81157 57.35545 34354 ft 436 kts 314°
2026-04-17 11:19 47.85329 57.29008 34355 ft 435 kts 314°
2026-04-17 11:20 47.89501 57.22465 34353 ft 435 kts 314°
2026-04-17 11:20 47.92961 57.17021 34352 ft 435 kts 314°
2026-04-17 11:21 47.97127 57.10473 34356 ft 435 kts 314°
2026-04-17 11:21 48.01281 57.03902 34354 ft 435 kts 314°
2026-04-17 11:22 48.05435 56.97310 34350 ft 436 kts 314°
2026-04-17 11:22 48.09595 56.90699 34353 ft 437 kts 314°
2026-04-17 11:23 48.13753 56.84075 34355 ft 437 kts 314°
2026-04-17 11:23 48.17913 56.77448 34363 ft 436 kts 314°
2026-04-17 11:24 48.22061 56.70818 34363 ft 436 kts 313°
2026-04-17 11:24 48.26197 56.64169 34364 ft 436 kts 313°
2026-04-17 11:25 48.30329 56.57525 34365 ft 435 kts 313°
2026-04-17 11:25 48.34462 56.50873 34365 ft 436 kts 313°
2026-04-17 11:26 48.38592 56.44199 34364 ft 436 kts 313°
2026-04-17 11:26 48.42714 56.37517 34353 ft 435 kts 313°
2026-04-17 11:27 48.46835 56.30831 34356 ft 435 kts 313°
2026-04-17 11:27 48.50950 56.24143 34358 ft 435 kts 313°
2026-04-17 11:28 48.55031 56.17478 34363 ft 435 kts 313°
2026-04-17 11:28 48.59141 56.10757 34365 ft 435 kts 313°
2026-04-17 11:29 48.63246 56.04032 34365 ft 435 kts 313°
2026-04-17 11:29 48.67347 55.97294 34362 ft 435 kts 313°
2026-04-17 11:30 48.71431 55.90559 34359 ft 434 kts 313°
2026-04-17 11:30 48.75504 55.83814 34356 ft 434 kts 313°
2026-04-17 11:31 48.79576 55.77076 34353 ft 433 kts 313°
2026-04-17 11:31 48.83648 55.70324 34354 ft 434 kts 313°
2026-04-17 11:32 48.87711 55.63551 34357 ft 434 kts 312°
2026-04-17 11:32 48.91765 55.56759 34359 ft 434 kts 312°
2026-04-17 11:33 48.95814 55.49964 34361 ft 433 kts 312°
2026-04-17 11:33 48.99854 55.43161 34359 ft 433 kts 312°
2026-04-17 11:34 49.03897 55.36354 34359 ft 433 kts 312°
2026-04-17 11:34 49.07936 55.29535 34357 ft 433 kts 312°
2026-04-17 11:35 49.11965 55.22707 34355 ft 433 kts 312°
2026-04-17 11:35 49.15985 55.15880 34357 ft 432 kts 312°
2026-04-17 11:36 49.20007 55.09046 34357 ft 432 kts 312°
2026-04-17 11:36 49.24022 55.02200 34361 ft 432 kts 311°
2026-04-17 11:37 49.28025 54.95347 34357 ft 432 kts 312°
2026-04-17 11:37 49.32028 54.88483 34356 ft 432 kts 311°